Flag for Finland Weather past 2 weeks in Kuopio, Finland

Now
61 °F

Sunny.


Feels Like: 61 °F
Forecast: 53 / 61 °F
Wind: 6 mph from Southwest

Location: Kuopio Airport

Current Time: Jun 30, 2015 at 7:10:11 AM

Latest Report: Jun 30, 2015 at 6:20 AM


Visibility: 10 mi

Pressure: 29.89 "Hg

Humidity: 83%

Dew point: 55 °F

Location of KuopioLocation

Historic Weather in Kuopio — Graph

°F

Kuopio temperature yesterday

Maximum temperature yesterday: 75 °F (at 3:20 PM)
Minimum temperature yesterday: 50 °F (at 3:50 AM)
Average temperature yesterday: 63 °F

Past Weeks' High & Low Weather Summary

 TemperatureHumidityPressure
High75 °F (Jun 29, 3:20 PM)100% (Jun 15, 5:20 AM)29.92 "Hg (Jun 15, 5:20 AM)
Low45 °F (Jun 16, 10:20 AM)43% (Jun 28, 2:20 PM)29.27 "Hg (Jun 15, 7:20 AM)
Average57 °F79%29.78 "Hg
* Reported Jun 15 5:20 AM — Jun 30 5:20 AM, Kuopio, Weather by CustomWeather, © 2015

Note: Actual official high and low records may vary slightly from our data, if they occured in-between our weather recording intervals... More about our weather records

Advertising

Kuopio weather history for previous 24 hours

 ConditionsComfort  
Time TempWeatherWind HumidityBarometerVisibility
5:20 AM
Tue, Jun 30
61 °FSunny.3 mph83%29.89 "Hg10 mi
4:50 AM61 °FPartly sunny.3 mph83%29.89 "HgN/A
4:20 AM61 °FSunny.3 mph83%29.89 "Hg10 mi
3:50 AM57 °FClear.5 mph94%29.89 "Hg10 mi
3:20 AM59 °FClear.5 mph88%29.89 "Hg10 mi
2:50 AM59 °FClear.5 mph82%29.89 "Hg10 mi
2:20 AM59 °FClear.3 mph82%29.89 "Hg10 mi
1:50 AM59 °FClear.3 mph82%29.89 "Hg10 mi
1:20 AM61 °FPassing clouds.3 mph83%29.89 "HgN/A
12:20 AM61 °FClear.3 mph83%29.92 "Hg10 mi
11:50 PM
Mon, Jun 29
59 °FSunny.7 mph82%29.92 "Hg10 mi
11:20 PM61 °FSunny.7 mph77%29.92 "Hg10 mi
10:50 PM63 °FSunny.7 mph73%29.92 "Hg10 mi
10:20 PM63 °FSunny.6 mph73%29.89 "Hg10 mi
9:50 PM63 °FSunny.2 mph77%29.89 "Hg10 mi
9:20 PM66 °FSunny.2 mph60%29.89 "Hg10 mi
8:50 PM66 °FSunny.1 mph60%29.89 "Hg10 mi
8:20 PM66 °FSunny.5 mph60%29.89 "Hg10 mi
7:50 PM66 °FSunny.5 mph60%29.89 "Hg10 mi
7:20 PM68 °FSunny.7 mph56%29.89 "Hg10 mi
6:50 PM66 °FSunny.13 mph64%29.89 "Hg10 mi
6:20 PM68 °FSunny.15 mph56%29.89 "Hg10 mi
5:50 PM68 °FPassing clouds.14 mph60%29.89 "HgN/A
5:20 PM70 °FSunny.15 mph53%29.89 "Hg10 mi
4:50 PM73 °FSunny.14 mph44%29.86 "Hg10 mi
4:20 PM73 °FPassing clouds.9 mph50%29.86 "HgN/A
3:50 PM73 °FPartly sunny.10 mph50%29.86 "HgN/A
3:20 PM75 °FScattered clouds.10 mph44%29.86 "HgN/A
2:50 PM73 °FSunny.12 mph47%29.86 "Hg10 mi
2:20 PM73 °FPassing clouds.10 mph50%29.89 "HgN/A
1:50 PM72 °FSunny.5 mph50%29.89 "Hg10 mi
1:20 PM70 °FSunny.9 mph57%29.89 "Hg10 mi
12:50 PM72 °FSunny.10 mph53%29.89 "Hg10 mi
12:20 PM70 °FSunny.13 mph57%29.89 "Hg10 mi
11:50 AM68 °FSunny.12 mph64%29.89 "Hg10 mi
11:20 AM68 °FSunny.10 mph60%29.89 "Hg10 mi
10:50 AM66 °FSunny.9 mph64%29.89 "Hg10 mi
10:20 AM64 °FPassing clouds.9 mph64%29.89 "HgN/A
9:50 AM64 °FPassing clouds.6 mph68%29.89 "HgN/A
9:20 AM63 °FSunny.7 mph68%29.89 "Hg10 mi
8:50 AM63 °FPassing clouds.6 mph73%29.89 "HgN/A
8:20 AM61 °FSunny.7 mph72%29.89 "Hg10 mi
7:50 AM61 °FSunny.6 mph77%29.89 "Hg10 mi
7:20 AM61 °FSunny.3 mph72%29.89 "Hg10 mi
Weather by CustomWeather, © 2015

See weather overviewHow to use our weather pages